This is the latest recevied weather packets stored in our database for station/object TA3HRJ-12. If no packets are shown the sender has not sent any weather packets the latest 10 day(s).
| Time | Temp. | Humidity | Pressure | Rain* | Wind** | Luminosity | Snow |
|---|---|---|---|---|---|---|---|
| 1777770596 | 13.33° C | 42% | 1022 hPa | - | - | - | - |
| 1777769696 | 12.78° C | 42% | 1022.1 hPa | - | - | - | - |
| 1777768796 | 13.33° C | 42% | 1022 hPa | - | - | - | - |
| 1777767896 | 12.78° C | 43% | 1022.3 hPa | - | - | - | - |
| 1777766996 | 13.33° C | 42% | 1022.4 hPa | - | - | - | - |
| 1777766096 | 13.33° C | 43% | 1022.3 hPa | - | - | - | - |
| 1777765196 | 13.33° C | 42% | 1022.4 hPa | - | - | - | - |
| 1777764296 | 13.33° C | 42% | 1022.4 hPa | - | - | - | - |
| 1777763396 | 13.33° C | 43% | 1022.6 hPa | - | - | - | - |
| 1777762495 | 13.89° C | 42% | 1022.6 hPa | - | - | - | - |
| 1777761595 | 13.33° C | 41% | 1022.9 hPa | - | - | - | - |
| 1777760695 | 13.33° C | 42% | 1023.2 hPa | - | - | - | - |
| 1777759795 | 13.33° C | 41% | 1023.3 hPa | - | - | - | - |
| 1777758895 | 13.89° C | 41% | 1023.5 hPa | - | - | - | - |
| 1777757995 | 13.33° C | 42% | 1023.6 hPa | - | - | - | - |
| 1777757095 | 12.78° C | 43% | 1023.6 hPa | - | - | - | - |
| 1777756195 | 13.33° C | 42% | 1023.6 hPa | - | - | - | - |
| 1777755295 | 12.22° C | 43% | 1023.7 hPa | - | - | - | - |
| 1777754395 | 12.22° C | 44% | 1023.8 hPa | - | - | - | - |
| 1777753495 | 12.22° C | 44% | 1023.7 hPa | - | - | - | - |
| 1777752590 | 12.22° C | 42% | 1023.7 hPa | - | - | - | - |
| 1777751690 | 12.78° C | 43% | 1023.8 hPa | - | - | - | - |
| 1777750789 | 11.67° C | 44% | 1023.9 hPa | - | - | - | - |
| 1777749889 | 11.67° C | 45% | 1024 hPa | - | - | - | - |
| 1777748989 | 12.22° C | 44% | 1023.9 hPa | - | - | - | - |
* Rain since midnight (hover to see other rain measurements)
** Current wind speed in m/s (hover to see current wind gust speed)